Gainesville, GA

8:15 AM EDT on June 23, 2018 (GMT -0400)
Gilmer Memorial

Weather History for KGVL - March, 2018

Change the Weather History Date:

Wednesday, March 14, 2018

  Actual Average Record
Temperature  
Mean Temperature 42 °F 52 °F  
Max Temperature 50 °F 62 °F 80 °F (1990)
Min Temperature 33 °F 42 °F 19 °F (1993)
Degree Days  
Heating Degree Days 23 13  
Month to date heating degree days 246 206  
Since 1 July heating degree days 2445 2670  
Cooling Degree Days 0 0  
Month to date cooling degree days 0 0  
Year to date cooling degree days 15 0  
Moisture  
Dew Point 14 °F    
Average Humidity 36    
Maximum Humidity 52    
Minimum Humidity 19    
Precipitation  
Precipitation 0.00 in 0.17 in 1.10 in (1975)
Month to date precipitation 1.50 2.62  
Year to date precipitation 10.38 12.52  
Snow  
Snow 0.00 in - - ()
Month to date snowfall 0.0  
Since 1 July snowfall 0.0  
Snow Depth 0.00 in    
Sea Level Pressure  
Sea Level Pressure 30.07 in    
Wind  
Wind Speed 13 mph (WNW)    
Max Wind Speed 23 mph    
Max Gust Speed 34 mph    
Visibility 10 miles    
Events      
T = Trace of Precipitation, MM = Missing Value Source: NWS Daily Summary

Daily Weather History Graph

Daily Weather History Graph

Search for Another Location

Airport or City:

Astronomy

Mar. 14, 2018 Rise Set
Actual Time 7:47 AM EDT 7:42 PM EDT
Civil Twilight 7:22 AM EDT 8:07 PM EDT
Nautical Twilight 6:53 AM EDT 8:36 PM EDT
Astronomical Twilight 6:23 AM EDT 9:05 PM EDT
Moon 6:13 AM EDT (3/14) 5:08 PM EDT (3/14)
Length of Visible Light 12h 45m
Length of Day
11h 55m
Waning Crescent, 8% of the Moon is Illuminated
Mar 14
Waning Crescent
Mar 17
New
Mar 24
First Quarter
Mar 31
Full
Apr 8
Last Quarter

Hourly Weather History & Observations

Time (EDT) Temp. Windchill Dew Point Humidity Pressure Visibility Wind Dir Wind Speed Gust Speed Precip Events Conditions
12:53 AM 41.0 °F 34.3 °F 23.0 °F 49% 30.03 in 10.0 mi NW 11.5 mph - N/A   Clear
1:53 AM 39.0 °F 31.0 °F 21.0 °F 49% 30.04 in 10.0 mi NW 13.8 mph 26.5 mph N/A   Clear
2:53 AM 37.9 °F 30.9 °F 16.0 °F 41% 30.04 in 10.0 mi WNW 10.4 mph 23.0 mph N/A   Clear
3:53 AM 36.0 °F 29.6 °F 16.0 °F 44% 30.03 in 10.0 mi WNW 8.1 mph - N/A   Clear
4:53 AM 36.0 °F 27.5 °F 18.0 °F 48% 30.02 in 10.0 mi WNW 12.7 mph - N/A   Clear
5:53 AM 35.1 °F 26.4 °F 19.9 °F 54% 30.02 in 10.0 mi WNW 12.7 mph 21.9 mph N/A   Clear
6:53 AM 35.1 °F 25.5 °F 19.0 °F 52% 30.04 in 10.0 mi NW 15.0 mph 25.3 mph N/A   Clear
7:53 AM 33.1 °F 23.0 °F 12.0 °F 42% 30.07 in 10.0 mi NW 15.0 mph 27.6 mph N/A   Clear
8:53 AM 33.1 °F 22.2 °F 12.9 °F 43% 30.10 in 10.0 mi NW 17.3 mph 23.0 mph N/A   Clear
9:53 AM 35.1 °F 25.5 °F 10.9 °F 37% 30.11 in 10.0 mi NW 15.0 mph 24.2 mph N/A   Clear
10:53 AM 37.9 °F 28.2 °F 9.0 °F 30% 30.12 in 10.0 mi NW 18.4 mph 26.5 mph N/A   Clear
11:53 AM 41.0 °F 32.8 °F 9.0 °F 27% 30.11 in 10.0 mi NW 16.1 mph 26.5 mph N/A   Clear
12:53 PM 44.1 °F 35.7 °F 6.1 °F 21% 30.09 in 10.0 mi WNW 20.7 mph 27.6 mph N/A   Clear
1:53 PM 46.0 °F 39.6 °F 6.1 °F 20% 30.09 in 10.0 mi NW 15.0 mph 28.8 mph N/A   Clear
2:53 PM 48.0 °F - 10.0 °F 22% 30.06 in 10.0 mi NW 13.8 mph 19.6 mph N/A   Clear
3:53 PM 48.0 °F - 10.0 °F 22% 30.05 in 10.0 mi West 11.5 mph 21.9 mph N/A   Clear
4:53 PM 48.9 °F - 14.0 °F 25% 30.04 in 10.0 mi West 15.0 mph 21.9 mph N/A   Clear
5:53 PM 46.9 °F - 12.0 °F 24% 30.06 in 10.0 mi West 16.1 mph 25.3 mph N/A   Clear
6:53 PM 46.0 °F 39.6 °F 12.0 °F 25% 30.06 in 10.0 mi WNW 15.0 mph 21.9 mph N/A   Clear
7:53 PM 44.1 °F 38.1 °F 12.0 °F 27% 30.08 in 10.0 mi West 11.5 mph - N/A   Clear
8:53 PM 42.1 °F 37.7 °F 12.9 °F 31% 30.09 in 10.0 mi WNW 6.9 mph - N/A   Clear
9:53 PM 41.0 °F 35.8 °F 15.1 °F 35% 30.10 in 10.0 mi WNW 8.1 mph - N/A   Clear
10:53 PM 39.9 °F 33.4 °F 14.0 °F 35% 30.10 in 10.0 mi WNW 10.4 mph - N/A   Clear
11:53 PM 39.0 °F 32.8 °F 14.0 °F 36% 30.09 in 10.0 mi West 9.2 mph - N/A   Clear